Location: Balsareny
(41.8670°N, 1.8830°E)
Time: 23:47:18
(UTC+01:00)

X-37B - Pass Details

Date: 06 December 2021
Orbit: 334 x 337 km, 45.0° (Epoch: 11 January)

Event Time Altitude Azimuth Distance (km) Brightness Sun altitude
Rises 19:26:21 0° 240° (WSW) 2,094 5.5 -22.5°
Reaches altitude 10° 19:28:22 10° 236° (SW) 1,260 4.1 -22.9°
Enters shadow 19:29:38 23° 228° (SW) 756 2.6 -23.1°
